Caldwell, ID

12:01 AM MDT on July 26, 2017 (GMT -0600)
Caldwell Industrial

Weather History for KEUL - September, 2012

Change the Weather History Date:

Saturday, September 8, 2012

  Actual Average (KBOI) Record (KBOI)
Temperature  
Mean Temperature 68 °F -  
Max Temperature 91 °F 82 °F 95 °F (1944)
Min Temperature 46 °F 51 °F 34 °F (1921)
Cooling Degree Days 4    
Growing Degree Days 18 (Base 50)    
Moisture  
Dew Point 39 °F    
Average Humidity 35    
Maximum Humidity 67    
Minimum Humidity 14    
Precipitation  
Precipitation 0.00 in - - ()
Sea Level Pressure  
Sea Level Pressure 30.10 in    
Wind  
Wind Speed 6 mph (ESE)    
Max Wind Speed 14 mph    
Max Gust Speed 16 mph    
Visibility 10 miles    
Events      
Averages and records for this station are not official NWS values.
T = Trace of Precipitation, MM = Missing Value Source: NWS Daily Summary

Daily Weather History Graph

Daily Weather History Graph

Search for Another Location

Airport or City:

Trip Planner

Search our weather history database for the weather conditions in past years. The results will help you decide how hot, cold, wet, or windy it might be!

Date:

Astronomy

Sep. 08, 2012 Rise Set
Actual Time 7:18 AM MDT 8:08 PM MDT
Civil Twilight 6:49 AM MDT 8:37 PM MDT
Nautical Twilight 6:14 AM MDT 9:12 PM MDT
Astronomical Twilight 5:38 AM MDT 9:47 PM MDT
Moon No Moon Rise 3:17 PM MDT (9/8)
Length of Visible Light 13h 47m
Length of Day
12h 49m
Waning Gibbous, 48% of the Moon is Illuminated
Sep 8
Waning Gibbous
Sep 15
New
Sep 22
First Quarter
Sep 29
Full
Oct 8
Last Quarter

Hourly Weather History & Observations

Time (MDT) Temp. Windchill Dew Point Humidity Pressure Visibility Wind Dir Wind Speed Gust Speed Precip Events Conditions
12:15 AM 57.2 °F - 42.8 °F 59% 30.16 in 10.0 mi NE 5.8 mph - N/A   Clear
12:35 AM 57.2 °F - 42.8 °F 59% 30.16 in 10.0 mi East 3.5 mph - N/A   Clear
12:55 AM 57.2 °F - 42.8 °F 59% 30.17 in 10.0 mi South 4.6 mph - N/A   Clear
1:15 AM 57.2 °F - 42.8 °F 59% 30.16 in 10.0 mi SSW 3.5 mph - N/A   Clear
1:35 AM 53.6 °F - 42.8 °F 67% 30.17 in 10.0 mi ENE 4.6 mph - N/A   Clear
1:55 AM 53.6 °F - 41.0 °F 62% 30.17 in 10.0 mi ENE 5.8 mph - N/A   Clear
2:15 AM 53.6 °F - 41.0 °F 62% 30.17 in 10.0 mi South 4.6 mph - N/A   Clear
2:35 AM 53.6 °F - 42.8 °F 67% 30.17 in 10.0 mi Calm Calm - N/A   Clear
2:55 AM 53.6 °F - 41.0 °F 62% 30.17 in 10.0 mi Calm Calm - N/A   Clear
3:15 AM 53.6 °F - 41.0 °F 62% 30.17 in 10.0 mi SE 3.5 mph - N/A   Clear
3:35 AM 51.8 °F - 41.0 °F 67% 30.18 in 10.0 mi Calm Calm - N/A   Clear
3:55 AM 51.8 °F - 39.2 °F 62% 30.18 in 10.0 mi Calm Calm - N/A   Clear
7:35 AM 48.2 °F - 35.6 °F 62% 30.21 in 8.0 mi Calm Calm - N/A   Clear
7:55 AM 46.4 °F 44.3 °F 35.6 °F 66% 30.21 in 10.0 mi ENE 4.6 mph - N/A   Clear
8:35 AM 51.8 °F - 35.6 °F 54% 30.22 in 10.0 mi ESE 3.5 mph - N/A   Clear
8:55 AM 55.4 °F - 37.4 °F 51% 30.22 in 10.0 mi Calm Calm - N/A   Clear
9:15 AM 57.2 °F - 37.4 °F 48% 30.22 in 10.0 mi Calm Calm - N/A   Clear
9:35 AM 60.8 °F - 37.4 °F 42% 30.22 in 10.0 mi Calm Calm - N/A   Clear
10:15 AM 66.2 °F - 39.2 °F 37% 30.22 in 10.0 mi SE 8.1 mph - N/A   Clear
10:55 AM 69.8 °F - 39.2 °F 33% 30.21 in 10.0 mi Calm Calm - N/A   Clear
11:35 AM 75.2 °F - 41.0 °F 29% 30.21 in 10.0 mi SSW 4.6 mph - N/A   Clear
11:55 AM 78.8 °F - 41.0 °F 26% 30.20 in 10.0 mi SE 10.4 mph - N/A   Clear
12:15 PM 78.8 °F - 39.2 °F 24% 30.19 in 10.0 mi SSE 9.2 mph - N/A   Clear
12:35 PM 80.6 °F - 41.0 °F 24% 30.18 in 7.0 mi SSE 8.1 mph - N/A   Clear
12:55 PM 82.4 °F - 42.8 °F 25% 30.17 in 10.0 mi SSE 9.2 mph - N/A   Clear
1:15 PM 84.2 °F - 41.0 °F 22% 30.16 in 10.0 mi SSE 9.2 mph - N/A   Clear
1:35 PM 86.0 °F - 39.2 °F 19% 30.15 in 10.0 mi SE 13.8 mph - N/A   Clear
2:15 PM 87.8 °F - 37.4 °F 17% 30.12 in 10.0 mi ESE 11.5 mph 16.1 mph N/A   Clear
2:35 PM 89.6 °F - 39.2 °F 17% 30.11 in 10.0 mi East 12.7 mph - N/A   Clear
2:55 PM 89.6 °F - 41.0 °F 18% 30.10 in 10.0 mi SE 11.5 mph 16.1 mph N/A   Clear
3:15 PM 89.6 °F - 39.2 °F 17% 30.08 in 10.0 mi ENE 9.2 mph - N/A   Clear
3:35 PM 91.4 °F - 37.4 °F 15% 30.07 in 10.0 mi ESE 12.7 mph - N/A   Clear
3:55 PM 91.4 °F - 37.4 °F 15% 30.06 in 10.0 mi ESE 10.4 mph - N/A   Clear
4:15 PM 91.4 °F - 37.4 °F 15% 30.04 in 10.0 mi ESE 11.5 mph - N/A   Clear
4:35 PM 91.4 °F - 37.4 °F 15% 30.03 in 10.0 mi East 9.2 mph - N/A   Clear
4:55 PM 91.4 °F - 37.4 °F 15% 30.02 in 10.0 mi East 9.2 mph - N/A   Clear
5:15 PM 91.4 °F - 37.4 °F 15% 30.01 in 10.0 mi East 8.1 mph - N/A   Clear
5:35 PM 91.4 °F - 37.4 °F 15% 30.01 in 10.0 mi East 6.9 mph - N/A   Clear
6:15 PM 91.4 °F - 37.4 °F 15% 30.00 in 10.0 mi East 4.6 mph - N/A   Clear
6:35 PM 91.4 °F - 35.6 °F 14% 29.99 in 10.0 mi East 4.6 mph - N/A   Clear
7:15 PM 89.6 °F - 37.4 °F 16% 29.98 in 10.0 mi East 3.5 mph - N/A   Clear
7:35 PM 87.8 °F - 39.2 °F 18% 29.97 in 10.0 mi Calm Calm - N/A   Clear
7:55 PM 84.2 °F - 44.6 °F 25% 29.97 in 10.0 mi NE 5.8 mph - N/A   Clear
8:15 PM 80.6 °F - 42.8 °F 26% 29.96 in 10.0 mi ENE 5.8 mph - N/A   Clear
9:15 PM 73.4 °F - 42.8 °F 33% 29.95 in 10.0 mi ESE 9.2 mph - N/A   Clear
9:35 PM 71.6 °F - 41.0 °F 33% 29.95 in 10.0 mi SSE 9.2 mph - N/A   Clear
10:15 PM 73.4 °F - 39.2 °F 29% 29.95 in 10.0 mi SE 11.5 mph - N/A   Clear
10:55 PM 71.6 °F - 37.4 °F 29% 29.95 in 10.0 mi SE 11.5 mph - N/A   Clear
11:15 PM 69.8 °F - 35.6 °F 28% 29.95 in 10.0 mi SE 12.7 mph - N/A   Clear
11:35 PM 69.8 °F - 35.6 °F 28% 29.94 in 10.0 mi SE 12.7 mph - N/A   Clear
11:55 PM 68.0 °F - 35.6 °F 30% 29.93 in 10.0 mi SE 12.7 mph - N/A   Clear